This is the latest recevied weather packets stored in our database for station/object GW1477. If no packets are shown the sender has not sent any weather packets the latest 10 day(s).
| Time | Temp. | Humidity | Pressure | Rain* | Wind** | Luminosity | Snow |
|---|---|---|---|---|---|---|---|
| 1777533490 | 9.44° C | 89% | - | 0 mm | - | - | - |
| 1777533164 | 9.44° C | 89% | - | 0 mm | - | - | - |
| 1777529177 | 8.89° C | 94% | - | 0 mm | - | - | - |
| 1777525575 | 8.89° C | 95% | - | 0 mm | - | - | - |
| 1777523807 | 8.89° C | 95% | - | 0 mm | - | - | - |
| 1777522339 | 8.89° C | 93% | - | 0 mm | - | - | - |
| 1777519854 | 10° C | 91% | - | 0 mm | - | - | - |
| 1777518740 | 10° C | 92% | - | 0 mm | - | - | - |
| 1777518380 | 10° C | 94% | - | 0 mm | - | - | - |
| 1777515869 | 10.56° C | 99% | - | 0 mm | - | - | - |
| 1777515498 | 11.11° C | 99% | - | 0 mm | - | - | - |
| 1777515131 | 11.11° C | 99% | - | 0 mm | - | - | - |
| 1777512973 | 11.11° C | 99% | - | 0 mm | - | - | - |
| 1777507957 | 11.67° C | 98% | - | 0 mm | - | - | - |
| 1777507230 | 11.67° C | 98% | - | 0 mm | - | - | - |
| 1777506139 | 11.67° C | 98% | - | 0 mm | - | - | - |
| 1777500023 | 13.89° C | 98% | - | 0 mm | - | - | - |
| 1777497889 | 13.89° C | 99% | - | 0 mm | - | - | - |
| 1777492106 | 13.33° C | 98% | - | 0 mm | - | - | - |
| 1777491380 | 13.33° C | 98% | - | 0 mm | - | - | - |
| 1777485267 | 13.33° C | 97% | - | 0 mm | - | - | - |
| 1777481668 | 12.78° C | 98% | - | 0 mm | - | - | - |
| 1777480578 | 12.78° C | 98% | - | 0 mm | - | - | - |
| 1777480229 | 12.78° C | 98% | - | 0 mm | - | - | - |
| 1777477711 | 13.33° C | 97% | - | 0 mm | - | - | - |
* Rain since midnight (hover to see other rain measurements)
** Current wind speed in m/s (hover to see current wind gust speed)